User: anonymous   Login
Location: Prairie Dale
(45.6972°N, 104.5033°W)
Time: 14:28:28
(UTC+00:00)
Language:

ESTCUBE 1 - Orbit

View from above orbital plane
View from above orbital plane
View from above satellite
View from above satellite

Ground track
Ground track

The orbit data is extracted from the following two-line orbital elements,

1 39161U 13021C   22177.05007785  .00000952  00000-0  15590-3 0  9997
2 39161  97.9077 254.0628 0010236  42.1917 318.0036 14.72969107490734
Epoch (UTC): 26 June 2022 01:12:06
Eccentricity: 0.0010236
inclination: 97.9077°
perigee height: 644 km
apogee height: 659 km
right ascension of ascending node: 254.0628°
argument of perigee: 42.1917°
revolutions per day: 14.72969107
mean anomaly at epoch: 318.0036°
orbit number at epoch: 49073

The dashed part of the orbit path shows where the satellite is in the earth's shadow,  

DLR